owner,sensor,date,latitude,longitude,vertical_datum,sea_water_practical_salinity,qcFlag 
DISL,ioos:station:DISL:KATA:1,2014-12-01T00:00:00Z,30.2583,-88.2131,4.1,31.46,1111122 
DISL,ioos:station:DISL:KATA:1,2014-12-01T00:30:00Z,30.2583,-88.2131,4.114,31.64,1111122 
DISL,ioos:station:DISL:KATA:1,2014-12-01T01:00:00Z,30.2583,-88.2131,4.131,31.65,1111122 
DISL,ioos:station:DISL:KATA:1,2014-12-01T01:30:00Z,30.2583,-88.2131,4.15,31.64,1111122 
DISL,ioos:station:DISL:KATA:1,2014-12-01T02:00:00Z,30.2583,-88.2131,4.157,31.72,1111122 
DISL,ioos:station:DISL:KATA:1,2014-12-01T02:30:00Z,30.2583,-88.2131,4.154,31.74,1111122 
DISL,ioos:station:DISL:KATA:1,2014-12-01T03:00:00Z,30.2583,-88.2131,4.145,31.65,1111122 
DISL,ioos:station:DISL:KATA:1,2014-12-01T03:30:00Z,30.2583,-88.2131,4.127,31.73,1111122 
DISL,ioos:station:DISL:KATA:1,2014-12-01T04:00:00Z,30.2583,-88.2131,4.1,31.79,1111122 
DISL,ioos:station:DISL:KATA:1,2014-12-01T04:30:00Z,30.2583,-88.2131,4.071,31.77,1111122 
DISL,ioos:station:DISL:KATA:1,2014-12-01T05:00:00Z,30.2583,-88.2131,4.047,31.72,1111122 
DISL,ioos:station:DISL:KATA:1,2014-12-01T05:30:00Z,30.2583,-88.2131,4.02,31.64,1111122 
DISL,ioos:station:DISL:KATA:1,2014-12-01T06:00:00Z,30.2583,-88.2131,3.996,31.53,1111122 
DISL,ioos:station:DISL:KATA:1,2014-12-01T06:30:00Z,30.2583,-88.2131,3.977,31.43,1111122 
DISL,ioos:station:DISL:KATA:1,2014-12-01T07:00:00Z,30.2583,-88.2131,3.964,31.37,1111122 
DISL,ioos:station:DISL:KATA:1,2014-12-01T07:30:00Z,30.2583,-88.2131,3.957,31.31,1111122 
DISL,ioos:station:DISL:KATA:1,2014-12-01T08:00:00Z,30.2583,-88.2131,3.949,31.36,1111122 
DISL,ioos:station:DISL:KATA:1,2014-12-01T08:30:00Z,30.2583,-88.2131,3.947,31.44,1111122 
DISL,ioos:station:DISL:KATA:1,2014-12-01T09:00:00Z,30.2583,-88.2131,3.948,31.51,1111122 
DISL,ioos:station:DISL:KATA:1,2014-12-01T09:30:00Z,30.2583,-88.2131,3.945,31.58,1111122 
DISL,ioos:station:DISL:KATA:1,2014-12-01T10:00:00Z,30.2583,-88.2131,3.939,31.57,1111122 
DISL,ioos:station:DISL:KATA:1,2014-12-01T10:30:00Z,30.2583,-88.2131,3.922,31.61,1111122 
DISL,ioos:station:DISL:KATA:1,2014-12-01T11:00:00Z,30.2583,-88.2131,3.908,31.44,1111122 
DISL,ioos:station:DISL:KATA:1,2014-12-01T11:30:00Z,30.2583,-88.2131,3.9,31.42,1111122 
DISL,ioos:station:DISL:KATA:1,2014-12-01T12:00:00Z,30.2583,-88.2131,3.895,31.55,1111122 
DISL,ioos:station:DISL:KATA:1,2014-12-01T12:30:00Z,30.2583,-88.2131,3.899,31.53,1111122 
DISL,ioos:station:DISL:KATA:1,2014-12-01T13:00:00Z,30.2583,-88.2131,3.915,31.71,1111122 
DISL,ioos:station:DISL:KATA:1,2014-12-01T13:30:00Z,30.2583,-88.2131,3.929,31.87,1111122 
DISL,ioos:station:DISL:KATA:1,2014-12-01T14:00:00Z,30.2583,-88.2131,3.941,31.92,1111122 
DISL,ioos:station:DISL:KATA:1,2014-12-01T14:30:00Z,30.2583,-88.2131,3.948,31.97,1111122 
DISL,ioos:station:DISL:KATA:1,2014-12-01T15:00:00Z,30.2583,-88.2131,3.946,32.07,1111122 
DISL,ioos:station:DISL:KATA:1,2014-12-01T15:30:00Z,30.2583,-88.2131,3.931,32.08,1111122 
DISL,ioos:station:DISL:KATA:1,2014-12-01T16:00:00Z,30.2583,-88.2131,3.916,32.07,1111122 
DISL,ioos:station:DISL:KATA:1,2014-12-01T16:30:00Z,30.2583,-88.2131,3.9,32.07,1111122 
DISL,ioos:station:DISL:KATA:1,2014-12-01T17:00:00Z,30.2583,-88.2131,3.889,32.05,1111122 
DISL,ioos:station:DISL:KATA:1,2014-12-01T17:30:00Z,30.2583,-88.2131,3.901,32.03,1111122 
DISL,ioos:station:DISL:KATA:1,2014-12-01T18:00:00Z,30.2583,-88.2131,3.911,32.03,1111122 
DISL,ioos:station:DISL:KATA:1,2014-12-01T18:30:00Z,30.2583,-88.2131,3.923,32.02,1111122 
DISL,ioos:station:DISL:KATA:1,2014-12-01T19:00:00Z,30.2583,-88.2131,3.934,32.02,1111122 
DISL,ioos:station:DISL:KATA:1,2014-12-01T19:30:00Z,30.2583,-88.2131,3.95,32.0,1111122 
DISL,ioos:station:DISL:KATA:1,2014-12-01T20:00:00Z,30.2583,-88.2131,3.968,31.98,1111122 
DISL,ioos:station:DISL:KATA:1,2014-12-01T20:30:00Z,30.2583,-88.2131,3.989,31.99,1111122 
DISL,ioos:station:DISL:KATA:1,2014-12-01T21:00:00Z,30.2583,-88.2131,4.004,31.97,1111122 
DISL,ioos:station:DISL:KATA:1,2014-12-01T21:30:00Z,30.2583,-88.2131,4.031,31.9,1111122 
DISL,ioos:station:DISL:KATA:1,2014-12-01T22:00:00Z,30.2583,-88.2131,4.04,31.96,1111122 
DISL,ioos:station:DISL:KATA:1,2014-12-01T22:30:00Z,30.2583,-88.2131,4.056,32.01,1111122 
DISL,ioos:station:DISL:KATA:1,2014-12-01T23:00:00Z,30.2583,-88.2131,4.067,31.99,1111122 
DISL,ioos:station:DISL:KATA:1,2014-12-01T23:30:00Z,30.2583,-88.2131,4.072,31.97,1111122 
DISL,ioos:station:DISL:KATA:1,2014-12-02T00:00:00Z,30.2583,-88.2131,4.076,31.94,1111122 
DISL,ioos:station:DISL:KATA:1,2014-12-02T00:30:00Z,30.2583,-88.2131,4.087,31.91,1111122 
DISL,ioos:station:DISL:KATA:1,2014-12-02T01:00:00Z,30.2583,-88.2131,4.095,31.89,1111122 
DISL,ioos:station:DISL:KATA:1,2014-12-02T01:30:00Z,30.2583,-88.2131,4.113,31.91,1111122 
DISL,ioos:station:DISL:KATA:1,2014-12-02T02:00:00Z,30.2583,-88.2131,4.126,31.92,1111122 
DISL,ioos:station:DISL:KATA:1,2014-12-02T02:30:00Z,30.2583,-88.2131,4.134,31.91,1111122 
DISL,ioos:station:DISL:KATA:1,2014-12-02T03:00:00Z,30.2583,-88.2131,4.135,31.88,1111122 
DISL,ioos:station:DISL:KATA:1,2014-12-02T03:30:00Z,30.2583,-88.2131,4.123,30.47,1111122 
DISL,ioos:station:DISL:KATA:1,2014-12-02T04:00:00Z,30.2583,-88.2131,4.092,31.82,1111122 
DISL,ioos:station:DISL:KATA:1,2014-12-02T04:30:00Z,30.2583,-88.2131,4.061,31.83,1111122 
DISL,ioos:station:DISL:KATA:1,2014-12-02T05:00:00Z,30.2583,-88.2131,4.032,31.85,1111122 
DISL,ioos:station:DISL:KATA:1,2014-12-02T05:30:00Z,30.2583,-88.2131,3.997,31.84,1111122 
DISL,ioos:station:DISL:KATA:1,2014-12-02T06:00:00Z,30.2583,-88.2131,3.97,31.82,1111122 
DISL,ioos:station:DISL:KATA:1,2014-12-02T06:30:00Z,30.2583,-88.2131,3.954,31.77,1111122 
DISL,ioos:station:DISL:KATA:1,2014-12-02T07:00:00Z,30.2583,-88.2131,3.929,31.76,1111122 
DISL,ioos:station:DISL:KATA:1,2014-12-02T07:30:00Z,30.2583,-88.2131,3.919,31.63,1111122 
DISL,ioos:station:DISL:KATA:1,2014-12-02T08:00:00Z,30.2583,-88.2131,3.913,31.71,1111122 
DISL,ioos:station:DISL:KATA:1,2014-12-02T08:30:00Z,30.2583,-88.2131,3.906,31.71,1111122 
DISL,ioos:station:DISL:KATA:1,2014-12-02T09:00:00Z,30.2583,-88.2131,3.909,31.71,1111122 
DISL,ioos:station:DISL:KATA:1,2014-12-02T09:30:00Z,30.2583,-88.2131,3.911,31.73,1111122 
DISL,ioos:station:DISL:KATA:1,2014-12-02T10:00:00Z,30.2583,-88.2131,3.915,31.73,1111122 
DISL,ioos:station:DISL:KATA:1,2014-12-02T10:30:00Z,30.2583,-88.2131,3.928,31.74,1111122 
DISL,ioos:station:DISL:KATA:1,2014-12-02T11:00:00Z,30.2583,-88.2131,3.93,31.8,1111122 
DISL,ioos:station:DISL:KATA:1,2014-12-02T11:30:00Z,30.2583,-88.2131,3.923,31.82,1111122 
DISL,ioos:station:DISL:KATA:1,2014-12-02T12:00:00Z,30.2583,-88.2131,3.909,31.84,1111122 
DISL,ioos:station:DISL:KATA:1,2014-12-02T12:30:00Z,30.2583,-88.2131,3.907,31.86,1111122 
DISL,ioos:station:DISL:KATA:1,2014-12-02T13:00:00Z,30.2583,-88.2131,3.921,31.73,1111122 
DISL,ioos:station:DISL:KATA:1,2014-12-02T13:30:00Z,30.2583,-88.2131,3.943,31.87,1111122 
DISL,ioos:station:DISL:KATA:1,2014-12-02T14:00:00Z,30.2583,-88.2131,3.969,31.87,1111122 
DISL,ioos:station:DISL:KATA:1,2014-12-02T14:30:00Z,30.2583,-88.2131,3.981,31.83,1111122 
DISL,ioos:station:DISL:KATA:1,2014-12-02T15:00:00Z,30.2583,-88.2131,3.999,31.84,1111122 
DISL,ioos:station:DISL:KATA:1,2014-12-02T15:30:00Z,30.2583,-88.2131,4.024,31.82,1111122 
DISL,ioos:station:DISL:KATA:1,2014-12-02T16:00:00Z,30.2583,-88.2131,4.041,31.76,1111122 
DISL,ioos:station:DISL:KATA:1,2014-12-02T16:30:00Z,30.2583,-88.2131,4.049,31.74,1111122 
DISL,ioos:station:DISL:KATA:1,2014-12-02T17:00:00Z,30.2583,-88.2131,4.053,31.79,1111122 
DISL,ioos:station:DISL:KATA:1,2014-12-02T17:30:00Z,30.2583,-88.2131,4.047,31.75,1111122 
DISL,ioos:station:DISL:KATA:1,2014-12-02T18:00:00Z,30.2583,-88.2131,4.048,31.72,1111122 
DISL,ioos:station:DISL:KATA:1,2014-12-02T18:30:00Z,30.2583,-88.2131,4.052,31.64,1111122 
DISL,ioos:station:DISL:KATA:1,2014-12-02T19:00:00Z,30.2583,-88.2131,4.072,31.63,1111122 
DISL,ioos:station:DISL:KATA:1,2014-12-02T19:30:00Z,30.2583,-88.2131,4.095,31.61,1111122 
DISL,ioos:station:DISL:KATA:1,2014-12-02T20:00:00Z,30.2583,-88.2131,4.129,31.56,1111122 
DISL,ioos:station:DISL:KATA:1,2014-12-02T20:30:00Z,30.2583,-88.2131,4.164,31.44,1111122 
DISL,ioos:station:DISL:KATA:1,2014-12-02T21:00:00Z,30.2583,-88.2131,4.193,30.99,1111122 
DISL,ioos:station:DISL:KATA:1,2014-12-02T21:30:00Z,30.2583,-88.2131,4.205,31.26,1111122 
DISL,ioos:station:DISL:KATA:1,2014-12-02T22:00:00Z,30.2583,-88.2131,4.214,31.32,1111122 
DISL,ioos:station:DISL:KATA:1,2014-12-02T22:30:00Z,30.2583,-88.2131,4.227,31.34,1111122 
DISL,ioos:station:DISL:KATA:1,2014-12-02T23:00:00Z,30.2583,-88.2131,4.239,31.18,1111122 
DISL,ioos:station:DISL:KATA:1,2014-12-02T23:30:00Z,30.2583,-88.2131,4.256,31.17,1111122 
DISL,ioos:station:DISL:KATA:1,2014-12-03T00:00:00Z,30.2583,-88.2131,4.263,31.19,1111122 
DISL,ioos:station:DISL:KATA:1,2014-12-03T00:30:00Z,30.2583,-88.2131,4.271,31.18,1111122 
DISL,ioos:station:DISL:KATA:1,2014-12-03T01:00:00Z,30.2583,-88.2131,4.259,31.12,1111122 
DISL,ioos:station:DISL:KATA:1,2014-12-03T01:30:00Z,30.2583,-88.2131,4.257,31.07,1111122 
DISL,ioos:station:DISL:KATA:1,2014-12-03T02:00:00Z,30.2583,-88.2131,4.25,31.03,1111122 
DISL,ioos:station:DISL:KATA:1,2014-12-03T02:30:00Z,30.2583,-88.2131,4.249,30.97,1111122 
DISL,ioos:station:DISL:KATA:1,2014-12-03T03:00:00Z,30.2583,-88.2131,4.252,31.12,1111122 
DISL,ioos:station:DISL:KATA:1,2014-12-03T03:30:00Z,30.2583,-88.2131,4.245,31.14,1111122 
DISL,ioos:station:DISL:KATA:1,2014-12-03T04:00:00Z,30.2583,-88.2131,4.227,31.11,1111122 
DISL,ioos:station:DISL:KATA:1,2014-12-03T04:30:00Z,30.2583,-88.2131,4.194,31.06,1111122 
DISL,ioos:station:DISL:KATA:1,2014-12-03T05:00:00Z,30.2583,-88.2131,4.146,30.97,1111122 
DISL,ioos:station:DISL:KATA:1,2014-12-03T05:30:00Z,30.2583,-88.2131,4.095,30.76,1111122 
DISL,ioos:station:DISL:KATA:1,2014-12-03T06:00:00Z,30.2583,-88.2131,4.049,30.69,1111122 
DISL,ioos:station:DISL:KATA:1,2014-12-03T06:30:00Z,30.2583,-88.2131,3.999,30.62,1111122 
DISL,ioos:station:DISL:KATA:1,2014-12-03T07:00:00Z,30.2583,-88.2131,3.955,30.47,1111122 
DISL,ioos:station:DISL:KATA:1,2014-12-03T07:30:00Z,30.2583,-88.2131,3.919,30.24,1111122 
DISL,ioos:station:DISL:KATA:1,2014-12-03T08:00:00Z,30.2583,-88.2131,3.881,29.81,1111122 
DISL,ioos:station:DISL:KATA:1,2014-12-03T08:30:00Z,30.2583,-88.2131,3.843,29.63,1111122 
DISL,ioos:station:DISL:KATA:1,2014-12-03T09:00:00Z,30.2583,-88.2131,3.813,30.19,1111122 
DISL,ioos:station:DISL:KATA:1,2014-12-03T09:30:00Z,30.2583,-88.2131,3.795,30.13,1111122 
DISL,ioos:station:DISL:KATA:1,2014-12-03T10:00:00Z,30.2583,-88.2131,3.785,30.26,1111122 
DISL,ioos:station:DISL:KATA:1,2014-12-03T10:30:00Z,30.2583,-88.2131,3.789,30.45,1111122 
DISL,ioos:station:DISL:KATA:1,2014-12-03T11:00:00Z,30.2583,-88.2131,3.791,30.52,1111122 
DISL,ioos:station:DISL:KATA:1,2014-12-03T11:30:00Z,30.2583,-88.2131,3.798,30.58,1111122 
DISL,ioos:station:DISL:KATA:1,2014-12-03T12:00:00Z,30.2583,-88.2131,3.801,30.5,1111122 
DISL,ioos:station:DISL:KATA:1,2014-12-03T12:30:00Z,30.2583,-88.2131,3.796,30.57,1111122 
DISL,ioos:station:DISL:KATA:1,2014-12-03T13:00:00Z,30.2583,-88.2131,3.799,30.6,1111122 
DISL,ioos:station:DISL:KATA:1,2014-12-03T13:30:00Z,30.2583,-88.2131,3.802,30.63,1111122 
DISL,ioos:station:DISL:KATA:1,2014-12-03T14:00:00Z,30.2583,-88.2131,3.822,30.74,1111122 
DISL,ioos:station:DISL:KATA:1,2014-12-03T14:30:00Z,30.2583,-88.2131,3.84,30.83,1111122 
DISL,ioos:station:DISL:KATA:1,2014-12-03T15:00:00Z,30.2583,-88.2131,3.879,30.88,1111122 
DISL,ioos:station:DISL:KATA:1,2014-12-03T15:30:00Z,30.2583,-88.2131,3.915,30.9,1111122 
DISL,ioos:station:DISL:KATA:1,2014-12-03T16:00:00Z,30.2583,-88.2131,3.943,30.91,1111122 
DISL,ioos:station:DISL:KATA:1,2014-12-03T16:30:00Z,30.2583,-88.2131,3.968,30.89,1111122 
DISL,ioos:station:DISL:KATA:1,2014-12-03T17:00:00Z,30.2583,-88.2131,3.987,30.84,1111122 
DISL,ioos:station:DISL:KATA:1,2014-12-03T17:30:00Z,30.2583,-88.2131,4.002,30.79,1111122 
DISL,ioos:station:DISL:KATA:1,2014-12-03T18:00:00Z,30.2583,-88.2131,4.025,30.74,1111122 
DISL,ioos:station:DISL:KATA:1,2014-12-03T18:30:00Z,30.2583,-88.2131,4.041,30.68,1111122 
DISL,ioos:station:DISL:KATA:1,2014-12-03T19:00:00Z,30.2583,-88.2131,4.052,30.63,1111122 
DISL,ioos:station:DISL:KATA:1,2014-12-03T19:30:00Z,30.2583,-88.2131,4.071,30.6,1111122 
DISL,ioos:station:DISL:KATA:1,2014-12-03T20:00:00Z,30.2583,-88.2131,4.098,30.62,1111122 
DISL,ioos:station:DISL:KATA:1,2014-12-03T20:30:00Z,30.2583,-88.2131,4.122,30.6,1111122 
DISL,ioos:station:DISL:KATA:1,2014-12-03T21:00:00Z,30.2583,-88.2131,4.15,30.57,1111122 
DISL,ioos:station:DISL:KATA:1,2014-12-03T21:30:00Z,30.2583,-88.2131,4.186,30.54,1111122 
DISL,ioos:station:DISL:KATA:1,2014-12-03T22:00:00Z,30.2583,-88.2131,4.22,30.49,1111122 
DISL,ioos:station:DISL:KATA:1,2014-12-03T22:30:00Z,30.2583,-88.2131,4.254,30.44,1111122 
DISL,ioos:station:DISL:KATA:1,2014-12-03T23:00:00Z,30.2583,-88.2131,4.277,30.39,1111122 
DISL,ioos:station:DISL:KATA:1,2014-12-03T23:30:00Z,30.2583,-88.2131,4.295,30.36,1111122 
DISL,ioos:station:DISL:KATA:1,2014-12-04T00:00:00Z,30.2583,-88.2131,4.307,30.34,1111122 
DISL,ioos:station:DISL:KATA:1,2014-12-04T00:30:00Z,30.2583,-88.2131,4.306,30.32,1111122 
DISL,ioos:station:DISL:KATA:1,2014-12-04T01:00:00Z,30.2583,-88.2131,4.307,30.42,1111122 
DISL,ioos:station:DISL:KATA:1,2014-12-04T01:30:00Z,30.2583,-88.2131,4.306,30.41,1111122 
DISL,ioos:station:DISL:KATA:1,2014-12-04T02:00:00Z,30.2583,-88.2131,4.303,30.41,1111122 
DISL,ioos:station:DISL:KATA:1,2014-12-04T02:30:00Z,30.2583,-88.2131,4.307,30.4,1111122 
DISL,ioos:station:DISL:KATA:1,2014-12-04T03:00:00Z,30.2583,-88.2131,4.3,30.34,1111122 
DISL,ioos:station:DISL:KATA:1,2014-12-04T03:30:00Z,30.2583,-88.2131,4.292,30.3,1111122 
DISL,ioos:station:DISL:KATA:1,2014-12-04T04:00:00Z,30.2583,-88.2131,4.278,30.18,1111122 
DISL,ioos:station:DISL:KATA:1,2014-12-04T04:30:00Z,30.2583,-88.2131,4.255,30.3,1111122 
DISL,ioos:station:DISL:KATA:1,2014-12-04T05:00:00Z,30.2583,-88.2131,4.226,30.3,1111122 
DISL,ioos:station:DISL:KATA:1,2014-12-04T05:30:00Z,30.2583,-88.2131,4.185,30.3,1111122 
DISL,ioos:station:DISL:KATA:1,2014-12-04T06:00:00Z,30.2583,-88.2131,4.133,30.31,1111122 
DISL,ioos:station:DISL:KATA:1,2014-12-04T06:30:00Z,30.2583,-88.2131,4.084,30.3,1111122 
DISL,ioos:station:DISL:KATA:1,2014-12-04T07:00:00Z,30.2583,-88.2131,4.029,30.29,1111122 
DISL,ioos:station:DISL:KATA:1,2014-12-04T07:30:00Z,30.2583,-88.2131,3.985,30.25,1111122 
DISL,ioos:station:DISL:KATA:1,2014-12-04T08:00:00Z,30.2583,-88.2131,3.936,30.23,1111122 
DISL,ioos:station:DISL:KATA:1,2014-12-04T08:30:00Z,30.2583,-88.2131,3.897,30.2,1111122 
DISL,ioos:station:DISL:KATA:1,2014-12-04T09:00:00Z,30.2583,-88.2131,3.861,30.17,1111122 
DISL,ioos:station:DISL:KATA:1,2014-12-04T09:30:00Z,30.2583,-88.2131,3.831,30.16,1111122 
DISL,ioos:station:DISL:KATA:1,2014-12-04T10:00:00Z,30.2583,-88.2131,3.801,30.2,1111122 
DISL,ioos:station:DISL:KATA:1,2014-12-04T10:30:00Z,30.2583,-88.2131,3.775,30.16,1111122 
DISL,ioos:station:DISL:KATA:1,2014-12-04T11:00:00Z,30.2583,-88.2131,3.755,30.15,1111122 
DISL,ioos:station:DISL:KATA:1,2014-12-04T11:30:00Z,30.2583,-88.2131,3.745,30.15,1111122 
DISL,ioos:station:DISL:KATA:1,2014-12-04T12:00:00Z,30.2583,-88.2131,3.736,30.15,1111122 
DISL,ioos:station:DISL:KATA:1,2014-12-04T12:30:00Z,30.2583,-88.2131,3.742,30.17,1111122 
DISL,ioos:station:DISL:KATA:1,2014-12-04T13:00:00Z,30.2583,-88.2131,3.748,30.18,1111122 
DISL,ioos:station:DISL:KATA:1,2014-12-04T13:30:00Z,30.2583,-88.2131,3.761,30.17,1111122 
DISL,ioos:station:DISL:KATA:1,2014-12-04T14:00:00Z,30.2583,-88.2131,3.786,30.17,1111122 
DISL,ioos:station:DISL:KATA:1,2014-12-04T14:30:00Z,30.2583,-88.2131,3.813,30.17,1111122 
DISL,ioos:station:DISL:KATA:1,2014-12-04T15:00:00Z,30.2583,-88.2131,3.837,30.18,1111122 
DISL,ioos:station:DISL:KATA:1,2014-12-04T15:30:00Z,30.2583,-88.2131,3.872,30.17,1111122 
DISL,ioos:station:DISL:KATA:1,2014-12-04T16:00:00Z,30.2583,-88.2131,3.906,30.19,1111122 
DISL,ioos:station:DISL:KATA:1,2014-12-04T16:30:00Z,30.2583,-88.2131,3.938,30.2,1111122 
DISL,ioos:station:DISL:KATA:1,2014-12-04T17:00:00Z,30.2583,-88.2131,3.966,30.23,1111122 
DISL,ioos:station:DISL:KATA:1,2014-12-04T17:30:00Z,30.2583,-88.2131,3.985,30.23,1111122 
DISL,ioos:station:DISL:KATA:1,2014-12-04T18:00:00Z,30.2583,-88.2131,4.005,30.24,1111122 
DISL,ioos:station:DISL:KATA:1,2014-12-04T18:30:00Z,30.2583,-88.2131,4.01,30.23,1111122 
DISL,ioos:station:DISL:KATA:1,2014-12-04T19:00:00Z,30.2583,-88.2131,4.025,30.23,1111122 
DISL,ioos:station:DISL:KATA:1,2014-12-04T19:30:00Z,30.2583,-88.2131,4.042,30.21,1111122 
DISL,ioos:station:DISL:KATA:1,2014-12-04T20:00:00Z,30.2583,-88.2131,4.068,30.21,1111122 
DISL,ioos:station:DISL:KATA:1,2014-12-04T20:30:00Z,30.2583,-88.2131,4.083,30.16,1111122 
DISL,ioos:station:DISL:KATA:1,2014-12-04T21:00:00Z,30.2583,-88.2131,4.11,30.15,1111122 
DISL,ioos:station:DISL:KATA:1,2014-12-04T21:30:00Z,30.2583,-88.2131,4.136,30.15,1111122 
DISL,ioos:station:DISL:KATA:1,2014-12-04T22:00:00Z,30.2583,-88.2131,4.168,30.15,1111122 
DISL,ioos:station:DISL:KATA:1,2014-12-04T22:30:00Z,30.2583,-88.2131,4.2,30.14,1111122 
DISL,ioos:station:DISL:KATA:1,2014-12-04T23:00:00Z,30.2583,-88.2131,4.228,30.13,1111122 
DISL,ioos:station:DISL:KATA:1,2014-12-04T23:30:00Z,30.2583,-88.2131,4.253,30.16,1111122 
DISL,ioos:station:DISL:KATA:1,2014-12-05T00:00:00Z,30.2583,-88.2131,4.283,30.2,1111122 
DISL,ioos:station:DISL:KATA:1,2014-12-05T00:30:00Z,30.2583,-88.2131,4.301,30.23,1111122 
DISL,ioos:station:DISL:KATA:1,2014-12-05T01:00:00Z,30.2583,-88.2131,4.324,30.25,1111122 
DISL,ioos:station:DISL:KATA:1,2014-12-05T01:30:00Z,30.2583,-88.2131,4.335,30.33,1111122 
DISL,ioos:station:DISL:KATA:1,2014-12-05T02:00:00Z,30.2583,-88.2131,4.339,30.4,1111122 
DISL,ioos:station:DISL:KATA:1,2014-12-05T02:30:00Z,30.2583,-88.2131,4.345,30.46,1111122 
DISL,ioos:station:DISL:KATA:1,2014-12-05T03:00:00Z,30.2583,-88.2131,4.338,30.48,1111122 
DISL,ioos:station:DISL:KATA:1,2014-12-05T03:30:00Z,30.2583,-88.2131,4.326,30.53,1111122 
DISL,ioos:station:DISL:KATA:1,2014-12-05T04:00:00Z,30.2583,-88.2131,4.316,30.55,1111122 
DISL,ioos:station:DISL:KATA:1,2014-12-05T04:30:00Z,30.2583,-88.2131,4.298,30.58,1111122 
DISL,ioos:station:DISL:KATA:1,2014-12-05T05:00:00Z,30.2583,-88.2131,4.269,30.59,1111122 
DISL,ioos:station:DISL:KATA:1,2014-12-05T05:30:00Z,30.2583,-88.2131,4.244,30.62,1111122 
DISL,ioos:station:DISL:KATA:1,2014-12-05T06:00:00Z,30.2583,-88.2131,4.209,30.63,1111122 
DISL,ioos:station:DISL:KATA:1,2014-12-05T06:30:00Z,30.2583,-88.2131,4.167,30.58,1111122 
DISL,ioos:station:DISL:KATA:1,2014-12-05T07:00:00Z,30.2583,-88.2131,4.116,30.57,1111122 
DISL,ioos:station:DISL:KATA:1,2014-12-05T07:30:00Z,30.2583,-88.2131,4.068,30.51,1111122 
DISL,ioos:station:DISL:KATA:1,2014-12-05T08:00:00Z,30.2583,-88.2131,4.016,30.42,1111122 
DISL,ioos:station:DISL:KATA:1,2014-12-05T08:30:00Z,30.2583,-88.2131,3.963,30.2,1111122 
DISL,ioos:station:DISL:KATA:1,2014-12-05T09:00:00Z,30.2583,-88.2131,3.915,30.02,1111122 
DISL,ioos:station:DISL:KATA:1,2014-12-05T09:30:00Z,30.2583,-88.2131,3.872,29.9,1111122 
DISL,ioos:station:DISL:KATA:1,2014-12-05T10:00:00Z,30.2583,-88.2131,3.837,29.87,1111122 
DISL,ioos:station:DISL:KATA:1,2014-12-05T10:30:00Z,30.2583,-88.2131,3.812,29.86,1111122 
DISL,ioos:station:DISL:KATA:1,2014-12-05T11:00:00Z,30.2583,-88.2131,3.8,29.6,1111122 
DISL,ioos:station:DISL:KATA:1,2014-12-05T11:30:00Z,30.2583,-88.2131,3.799,29.46,1111122 
DISL,ioos:station:DISL:KATA:1,2014-12-05T12:00:00Z,30.2583,-88.2131,3.813,29.62,1111122 
DISL,ioos:station:DISL:KATA:1,2014-12-05T12:30:00Z,30.2583,-88.2131,3.827,29.69,1111122 
DISL,ioos:station:DISL:KATA:1,2014-12-05T13:00:00Z,30.2583,-88.2131,3.836,29.76,1111122 
DISL,ioos:station:DISL:KATA:1,2014-12-05T13:30:00Z,30.2583,-88.2131,3.847,29.96,1111122 
DISL,ioos:station:DISL:KATA:1,2014-12-05T14:00:00Z,30.2583,-88.2131,3.855,30.0,1111122 
DISL,ioos:station:DISL:KATA:1,2014-12-05T14:30:00Z,30.2583,-88.2131,3.856,30.0,1111122 
DISL,ioos:station:DISL:KATA:1,2014-12-05T15:00:00Z,30.2583,-88.2131,3.854,30.0,1111122 
DISL,ioos:station:DISL:KATA:1,2014-12-05T15:30:00Z,30.2583,-88.2131,3.876,30.02,1111122 
DISL,ioos:station:DISL:KATA:1,2014-12-05T16:00:00Z,30.2583,-88.2131,3.905,30.06,1111122 
DISL,ioos:station:DISL:KATA:1,2014-12-05T16:30:00Z,30.2583,-88.2131,3.941,30.07,1111122 
DISL,ioos:station:DISL:KATA:1,2014-12-05T17:00:00Z,30.2583,-88.2131,3.988,30.36,1111122 
DISL,ioos:station:DISL:KATA:1,2014-12-05T17:30:00Z,30.2583,-88.2131,4.034,30.36,1111122 
DISL,ioos:station:DISL:KATA:1,2014-12-05T18:00:00Z,30.2583,-88.2131,4.06,30.43,1111122 
DISL,ioos:station:DISL:KATA:1,2014-12-05T18:30:00Z,30.2583,-88.2131,4.085,30.38,1111122 
DISL,ioos:station:DISL:KATA:1,2014-12-05T19:00:00Z,30.2583,-88.2131,4.109,30.37,1111122 
DISL,ioos:station:DISL:KATA:1,2014-12-05T19:30:00Z,30.2583,-88.2131,4.129,30.34,1111122 
DISL,ioos:station:DISL:KATA:1,2014-12-05T20:00:00Z,30.2583,-88.2131,4.144,30.33,1111122 
DISL,ioos:station:DISL:KATA:1,2014-12-05T20:30:00Z,30.2583,-88.2131,4.159,30.31,1111122 
DISL,ioos:station:DISL:KATA:1,2014-12-05T21:00:00Z,30.2583,-88.2131,4.186,30.29,1111122 
DISL,ioos:station:DISL:KATA:1,2014-12-05T21:30:00Z,30.2583,-88.2131,4.218,30.3,1111122 
DISL,ioos:station:DISL:KATA:1,2014-12-05T22:00:00Z,30.2583,-88.2131,4.251,30.3,1111122 
DISL,ioos:station:DISL:KATA:1,2014-12-05T22:30:00Z,30.2583,-88.2131,4.284,30.3,1111122 
DISL,ioos:station:DISL:KATA:1,2014-12-05T23:00:00Z,30.2583,-88.2131,4.317,30.29,1111122 
DISL,ioos:station:DISL:KATA:1,2014-12-05T23:30:00Z,30.2583,-88.2131,4.342,30.32,1111122 
DISL,ioos:station:DISL:KATA:1,2014-12-06T00:00:00Z,30.2583,-88.2131,4.372,30.33,1111122 
DISL,ioos:station:DISL:KATA:1,2014-12-06T00:30:00Z,30.2583,-88.2131,4.401,30.33,1111122 
DISL,ioos:station:DISL:KATA:1,2014-12-06T01:00:00Z,30.2583,-88.2131,4.429,30.35,1111122 
DISL,ioos:station:DISL:KATA:1,2014-12-06T01:30:00Z,30.2583,-88.2131,4.445,30.37,1111122 
DISL,ioos:station:DISL:KATA:1,2014-12-06T02:00:00Z,30.2583,-88.2131,4.462,30.4,1111122 
DISL,ioos:station:DISL:KATA:1,2014-12-06T02:30:00Z,30.2583,-88.2131,4.469,30.4,1111122 
DISL,ioos:station:DISL:KATA:1,2014-12-06T03:00:00Z,30.2583,-88.2131,4.469,30.41,1111122 
DISL,ioos:station:DISL:KATA:1,2014-12-06T03:30:00Z,30.2583,-88.2131,4.449,30.45,1111122 
DISL,ioos:station:DISL:KATA:1,2014-12-06T04:00:00Z,30.2583,-88.2131,4.423,30.42,1111122 
DISL,ioos:station:DISL:KATA:1,2014-12-06T04:30:00Z,30.2583,-88.2131,4.396,30.43,1111122 
DISL,ioos:station:DISL:KATA:1,2014-12-06T05:00:00Z,30.2583,-88.2131,4.359,30.45,1111122 
DISL,ioos:station:DISL:KATA:1,2014-12-06T05:30:00Z,30.2583,-88.2131,4.328,30.45,1111122 
DISL,ioos:station:DISL:KATA:1,2014-12-06T06:00:00Z,30.2583,-88.2131,4.292,30.45,1111122 
DISL,ioos:station:DISL:KATA:1,2014-12-06T06:30:00Z,30.2583,-88.2131,4.246,30.47,1111122 
DISL,ioos:station:DISL:KATA:1,2014-12-06T07:00:00Z,30.2583,-88.2131,4.2,30.45,1111122 
DISL,ioos:station:DISL:KATA:1,2014-12-06T07:30:00Z,30.2583,-88.2131,4.143,30.44,1111122 
DISL,ioos:station:DISL:KATA:1,2014-12-06T08:00:00Z,30.2583,-88.2131,4.08,30.37,1111122 
DISL,ioos:station:DISL:KATA:1,2014-12-06T08:30:00Z,30.2583,-88.2131,4.023,30.24,1111122 
DISL,ioos:station:DISL:KATA:1,2014-12-06T09:00:00Z,30.2583,-88.2131,3.966,30.1,1111122 
DISL,ioos:station:DISL:KATA:1,2014-12-06T09:30:00Z,30.2583,-88.2131,3.91,30.04,1111122 
DISL,ioos:station:DISL:KATA:1,2014-12-06T10:00:00Z,30.2583,-88.2131,3.861,29.99,1111122 
DISL,ioos:station:DISL:KATA:1,2014-12-06T10:30:00Z,30.2583,-88.2131,3.822,30.0,1111122 
DISL,ioos:station:DISL:KATA:1,2014-12-06T11:00:00Z,30.2583,-88.2131,3.789,29.94,1111122 
DISL,ioos:station:DISL:KATA:1,2014-12-06T11:30:00Z,30.2583,-88.2131,3.757,29.95,1111122 
DISL,ioos:station:DISL:KATA:1,2014-12-06T12:00:00Z,30.2583,-88.2131,3.739,29.86,1111122 
DISL,ioos:station:DISL:KATA:1,2014-12-06T12:30:00Z,30.2583,-88.2131,3.728,29.74,1111122 
DISL,ioos:station:DISL:KATA:1,2014-12-06T13:00:00Z,30.2583,-88.2131,3.725,29.57,1111122 
DISL,ioos:station:DISL:KATA:1,2014-12-06T13:30:00Z,30.2583,-88.2131,3.732,29.7,1111122 
DISL,ioos:station:DISL:KATA:1,2014-12-06T14:00:00Z,30.2583,-88.2131,3.749,29.69,1111122 